shijiazhuang , China , ASIA

  • Sunday
    August 19

      Overcast

      70 °F

      North

       

  • Monday
    August 20

    Sunny  Sunny

    90 °F  75 °F

    North  North

        

  • Tuesday
    August 21

    Cloudy  Cloudy

    91 °F  73 °F

    North  North

        

  • Wednesday
    August 22

    Sunny  Sunny

    86 °F  70 °F

    North  North

        

  • Thursday
    August 23

    Sunny  Sunny

    88 °F  73 °F

    North  North

        

  • Friday
    August 24

    Sunny  Sunny

    90 °F  73 °F

    South  North

        

  • Saturday
    August 25

    Sunny  Sunny

    88 °F  72 °F

    South  North

        

Date   Weather Temperature Humidity Total_rain Visibility Wind
23:00 Overcast 71°F 90.7% 0mm 999.9km Northwest  1.5m/s
02:00 Overcast 70°F 90.7% 0mm 999.9km Northwest  1.4m/s
05:00 Overcast 72°F 90.7% 0mm 999.9km Northwest  1.0m/s
08:00 Overcast 74°F 86.6% 0mm 999.9km Northwest  1.5m/s
11:00 Sunny 85°F 71.3% 0mm 999.9km Northwest  1.6m/s
14:00 Sunny 89°F 66.4% 0mm 999.9km Southwest  2.0m/s
17:00 Sunny 87°F 68.3% 0mm 999.9km Southwest  1.0m/s
20:00 Sunny 81°F 60.9% 0mm 999.9km Southwest  1.7m/s
23:00 Sunny 79°F 77.5% 0mm 999.9km Southwest  0.4m/s
02:00 Sunny 76°F 78.3% 0mm 999.9km Northwest  1.1m/s
05:00 Sunny 76°F 73.1% 0mm 999.9km Northwest  1.3m/s
08:00 Sunny 81°F 67.8% 0mm 999.9km Northwest  1.5m/s
11:00 Cloudy 89°F 59.6% 0mm 999.9km Northeast  2.2m/s
14:00 Cloudy 91°F 59.9% 0mm 999.9km Northeast  2.1m/s
17:00 Cloudy 91°F 60.5% 0mm 999.9km Southeast  1.4m/s
20:00 Cloudy 77°F 52.5% 0mm 999.9km Southeast  1.0m/s
23:00 Cloudy 78°F 74.3% 0mm 999.9km Northeast  0.4m/s
02:00 Cloudy 76°F 84.9% 0mm 999.9km Northwest  0.7m/s
05:00 Cloudy 74°F 85.6% 0mm 999.9km Northwest  1.4m/s
08:00 Cloudy 79°F 83.8% 0mm 999.9km Northwest  0.9m/s
11:00 Sunny 86°F 82.9% 0mm 999.9km Northwest  2.0m/s
14:00 Sunny 85°F 82% 0mm 999.9km Northwest  0.8m/s
17:00 Sunny 82°F 77% 0mm 999.9km Northwest  1.3m/s
20:00 Sunny 79°F 66.2% 0mm 999.9km Northwest  0.9m/s
23:00 Sunny 73°F 81.1% 0mm 999.9km Northwest  0.5m/s
02:00 Sunny 71°F 81.6% 0mm 999.9km Northwest  0.9m/s
05:00 Sunny 70°F 81.7% 0mm 999.9km Northwest  1.1m/s
08:00 Sunny 75°F 77.7% 0mm 999.9km Northwest  1.5m/s
11:00 Sunny 83°F 69.6% 0mm 999.9km Southwest  1.0m/s
14:00 Sunny 87°F 68.7% 0mm 999.9km Southeast  1.4m/s
17:00 Sunny 86°F 68.9% 0mm 999.9km Southeast  1.5m/s
20:00 Sunny 79°F 64.4% 0mm 999.9km Southwest  1.5m/s
23:00 Sunny 76°F 78.9% 0mm 999.9km Southwest  0.6m/s
02:00 Sunny 75°F 80.1% 0mm 999.9km Northwest  1.4m/s
05:00 Sunny 74°F 83.2% 0mm 999.9km Northwest  1.3m/s
08:00 Sunny 77°F 77.8% 0mm 999.9km Northwest  1.2m/s
11:00 Sunny 85°F 69.3% 0mm 999.9km Southeast  1.4m/s
14:00 Sunny 87°F 66% 0mm 999.9km Southeast  1.5m/s
17:00 Sunny 89°F 67.7% 0mm 999.9km Southeast  1.7m/s
20:00 Sunny 82°F 69.3% 0mm 999.9km Southeast  1.3m/s
23:00 Sunny 78°F 82.2% 0mm 999.9km Southeast  1.0m/s
02:00 Sunny 74°F 79.1% 0mm 999.9km Southwest  0.8m/s
05:00 Sunny 74°F 77.8% 0mm 999.9km Southwest  1.2m/s
08:00 Sunny 78°F 76.4% 0mm 999.9km Southwest  0.8m/s
11:00 Sunny 83°F 71% 0mm 999.9km Southeast  1.5m/s
14:00 Sunny 87°F 65.7% 0mm 999.9km Southeast  2.8m/s
17:00 Sunny 87°F 68.1% 0mm 999.9km Southeast  1.4m/s
20:00 Sunny 80°F 63.1% 0mm 999.9km Southeast  1.2m/s
23:00 Sunny 74°F 82.3% 0mm 999.9km Southeast  0.7m/s
02:00 Sunny 72°F 80.1% 0mm 999.9km Southeast  0.2m/s
05:00 Sunny 74°F 80.1% 0mm 999.9km Southwest  0.4m/s